Weather History for Moose Lake, MN

Change the Weather History Date:

Sunday, October 21, 2012

  Actual Average Record
Temperature  
Mean Temperature 48 °F -  
Max Temperature 62 °F 53 °F 80 °F (1953)
Min Temperature 33 °F 31 °F 19 °F (1987)
Degree Days  
Heating Degree Days 18    
Moisture  
Dew Point 33 °F    
Average Humidity 65    
Maximum Humidity 93    
Minimum Humidity 26    
Precipitation  
Precipitation 0.00 in - - ()
Sea Level Pressure  
Sea Level Pressure 29.84 in    
Wind  
Wind Speed 1 mph (ESE)    
Max Wind Speed 9 mph    
Max Gust Speed -    
Visibility 7 miles    
Events Fog    
Averages and records for this station are not official NWS values.
T = Trace of Precipitation, MM = Missing Value Source: NWS Daily Summary

Daily Weather History Graph

Daily Weather History Graph

Search for Another Location

Airport:

Trip Planner

Search our weather history database for the weather conditions in past years. The results will help you decide how hot, cold, wet, or windy it might be!

Date:

Astronomy

Oct. 21, 2012 Rise Set
Actual Time 7:37 AM CDT 6:13 PM CDT
Civil Twilight 7:06 AM CDT 6:43 PM CDT
Nautical Twilight 6:31 AM CDT 7:18 PM CDT
Astronomical Twilight 5:56 AM CDT 7:53 PM CDT
Moon 2:05 PM CDT (10/21) No Moon Set
Length of Visible Light 11h 36m
Length of Day
10h 35m
Waxing Crescent, 45% of the Moon is Illuminated
Oct 21
Waxing Crescent
Oct 21
First Quarter
Oct 29
Full
Nov 6
Last Quarter
Nov 13
New

Hourly Weather History & Observations

Time (CDT) Temp. Windchill Dew Point Humidity Pressure Visibility Wind Dir Wind Speed Gust Speed Precip Events Conditions
12:10 AM 35.6 °F - 32.0 °F 87% 29.80 in 7.0 mi Calm Calm - N/A   Clear
12:30 AM 35.6 °F - 32.0 °F 87% 29.81 in 7.0 mi Calm Calm - N/A   Clear
12:50 AM 35.6 °F - 32.0 °F 87% 29.81 in 3.0 mi Calm Calm - N/A   Haze
1:10 AM 33.8 °F - 30.2 °F 87% 29.81 in 1.0 mi Calm Calm - N/A   Haze
1:30 AM 33.8 °F - 32.0 °F 93% 29.81 in 5.0 mi Calm Calm - N/A   Mostly Cloudy
1:50 AM 35.6 °F - 32.0 °F 87% 29.81 in 4.0 mi Calm Calm - N/A   Mostly Cloudy
2:10 AM 33.8 °F - 30.2 °F 87% 29.82 in 3.0 mi Calm Calm - N/A   Haze
2:30 AM 35.6 °F - 32.0 °F 87% 29.82 in 4.0 mi Calm Calm - N/A   Mostly Cloudy
2:50 AM 33.8 °F - 32.0 °F 93% 29.82 in 4.0 mi Calm Calm - N/A   Clear
3:10 AM 35.6 °F - 32.0 °F 87% 29.82 in 3.0 mi Calm Calm - N/A   Haze
3:30 AM 35.6 °F - 32.0 °F 87% 29.82 in 4.0 mi Calm Calm - N/A   Haze
3:50 AM 35.6 °F - 32.0 °F 87% 29.82 in 3.0 mi Calm Calm - N/A   Clear
4:10 AM 35.6 °F - 32.0 °F 87% 29.82 in 2.0 mi Calm Calm - N/A   Haze
4:30 AM 35.6 °F - 32.0 °F 87% 29.82 in 3.0 mi Calm Calm - N/A   Haze
5:10 AM 37.4 °F - 33.8 °F 87% 29.82 in 2.5 mi Calm Calm - N/A   Haze
5:50 AM 37.4 °F - 33.8 °F 87% 29.83 in 0.5 mi Calm Calm - N/A   Haze
6:10 AM 35.6 °F - 32.0 °F 87% 29.83 in 1.5 mi Calm Calm - N/A   Haze
6:30 AM 35.6 °F - 32.0 °F 87% 29.82 in 0.5 mi Calm Calm - N/A   Haze
6:50 AM 35.6 °F - 32.0 °F 87% 29.82 in 0.5 mi Calm Calm - N/A Fog Fog
7:10 AM 35.6 °F - 32.0 °F 87% 29.83 in 0.5 mi Calm Calm - N/A Fog Fog
7:30 AM 35.6 °F - 32.0 °F 87% 29.83 in 1.5 mi Calm Calm - N/A   Mist
7:50 AM 35.6 °F - 32.0 °F 87% 29.82 in 1.2 mi Calm Calm - N/A   Mist
8:30 AM 39.2 °F - 35.6 °F 87% 29.82 in 3.0 mi Calm Calm - N/A   Clear
8:50 AM 41.0 °F - 35.6 °F 81% 29.83 in 4.0 mi Calm Calm - N/A   Haze
9:10 AM 41.0 °F - 35.6 °F 81% 29.83 in 4.0 mi Calm Calm - N/A   Haze
9:30 AM 41.0 °F - 37.4 °F 87% 29.83 in 5.0 mi Calm Calm - N/A   Scattered Clouds
9:50 AM 42.8 °F - 37.4 °F 81% 29.84 in 7.0 mi Calm Calm - N/A   Scattered Clouds
10:10 AM 44.6 °F - 37.4 °F 76% 29.84 in 10.0 mi Calm Calm - N/A   Clear
10:30 AM 46.4 °F - 37.4 °F 71% 29.84 in 10.0 mi Calm Calm - N/A   Clear
10:50 AM 50.0 °F - 37.4 °F 62% 29.84 in 10.0 mi Calm Calm - N/A   Clear
11:10 AM 51.8 °F - 37.4 °F 58% 29.84 in 10.0 mi Calm Calm - N/A   Clear
11:30 AM 53.6 °F - 37.4 °F 54% 29.84 in 10.0 mi Calm Calm - N/A   Clear
12:10 PM 55.4 °F - 35.6 °F 47% 29.83 in 10.0 mi Calm Calm - N/A   Clear
12:30 PM 59.0 °F - 35.6 °F 42% 29.82 in 10.0 mi Calm Calm - N/A   Clear
12:50 PM 60.8 °F - 32.0 °F 34% 29.82 in 10.0 mi SSE 6.9 mph - N/A   Clear
1:10 PM 62.6 °F - 32.0 °F 32% 29.81 in 10.0 mi SE 9.2 mph - N/A   Clear
1:30 PM 62.6 °F - 28.4 °F 27% 29.80 in 10.0 mi SE 5.8 mph - N/A   Clear
1:50 PM 62.6 °F - 26.6 °F 26% 29.79 in 10.0 mi Calm Calm - N/A   Clear
2:10 PM 62.6 °F - 26.6 °F 26% 29.79 in 10.0 mi ESE 6.9 mph - N/A   Clear
2:30 PM 62.6 °F - 26.6 °F 26% 29.79 in 10.0 mi SE 3.5 mph - N/A   Clear
2:50 PM 62.6 °F - 28.4 °F 27% 29.79 in 10.0 mi SE 3.5 mph - N/A   Clear
3:10 PM 62.6 °F - 26.6 °F 26% 29.79 in 10.0 mi SE 5.8 mph - N/A   Clear
3:30 PM 62.6 °F - 28.4 °F 27% 29.79 in 10.0 mi ESE 6.9 mph - N/A   Clear
3:50 PM 62.6 °F - 30.2 °F 30% 29.79 in 10.0 mi ESE 4.6 mph - N/A   Mostly Cloudy
4:10 PM 62.6 °F - 30.2 °F 30% 29.79 in 10.0 mi Calm Calm - N/A   Overcast
4:32 PM 60.8 °F - 26.6 °F 27% 29.81 in 10.0 mi Calm Calm - N/A   Overcast
4:50 PM 60.8 °F - 28.4 °F 29% 29.81 in 10.0 mi Calm Calm - N/A   Overcast
5:10 PM 57.2 °F - 33.8 °F 41% 29.82 in 10.0 mi Calm Calm - N/A   Overcast
5:30 PM 55.4 °F - 35.6 °F 47% 29.82 in 10.0 mi Calm Calm - N/A   Overcast
5:50 PM 53.6 °F - 35.6 °F 51% 29.84 in 10.0 mi Calm Calm - N/A   Overcast
6:10 PM 53.6 °F - 35.6 °F 51% 29.85 in 10.0 mi Calm Calm - N/A   Overcast
6:30 PM 51.8 °F - 35.6 °F 54% 29.85 in 10.0 mi Calm Calm - N/A   Overcast
6:50 PM 51.8 °F - 35.6 °F 54% 29.86 in 10.0 mi Calm Calm - N/A   Mostly Cloudy
7:10 PM 50.0 °F - 35.6 °F 58% 29.86 in 10.0 mi Calm Calm - N/A   Mostly Cloudy
7:30 PM 50.0 °F - 35.6 °F 58% 29.88 in 10.0 mi Calm Calm - N/A   Overcast
7:50 PM 50.0 °F - 35.6 °F 58% 29.89 in 10.0 mi NE 3.5 mph - N/A   Overcast
8:10 PM 48.2 °F - 35.6 °F 62% 29.89 in 10.0 mi Calm Calm - N/A   Overcast
8:30 PM 48.2 °F - 35.6 °F 62% 29.90 in 10.0 mi Calm Calm - N/A   Overcast
8:50 PM 46.4 °F - 35.6 °F 66% 29.90 in 10.0 mi Calm Calm - N/A   Overcast
9:10 PM 46.4 °F - 35.6 °F 66% 29.91 in 10.0 mi Calm Calm - N/A   Overcast
9:30 PM 46.4 °F - 35.6 °F 66% 29.92 in 10.0 mi Calm Calm - N/A   Overcast
9:50 PM 46.4 °F - 35.6 °F 66% 29.93 in 10.0 mi Calm Calm - N/A   Overcast
10:10 PM 46.4 °F - 35.6 °F 66% 29.92 in 10.0 mi Calm Calm - N/A   Scattered Clouds
10:30 PM 46.4 °F - 35.6 °F 66% 29.93 in 10.0 mi Calm Calm - N/A   Clear
10:50 PM 44.6 °F - 35.6 °F 71% 29.92 in 10.0 mi Calm Calm - N/A   Clear
11:30 PM 44.6 °F - 35.6 °F 71% 29.92 in 10.0 mi Calm Calm - N/A   Clear
11:50 PM 44.6 °F 42.2 °F 35.6 °F 71% 29.92 in 10.0 mi NNE 4.6 mph - N/A   Clear